South Bend, IN

12:06 AM EST on December 11, 2016 (GMT -0500)
South Bend Regional

Weather History for KSBN - July, 2013

Change the Weather History Date:

Monday, July 1, 2013

  Actual Average Record
Temperature  
Mean Temperature 66 °F 73 °F  
Max Temperature 76 °F 83 °F 99 °F (1956)
Min Temperature 56 °F 63 °F 45 °F (1950)
Degree Days  
Heating Degree Days 0 0  
Month to date heating degree days 0 0  
Since 1 June heating degree days 37 44  
Since 1 July heating degree days 0 0  
Cooling Degree Days 1 8  
Month to date cooling degree days 1 8  
Year to date cooling degree days 262 229  
Since 1 June cooling degree days 166 173  
Growing Degree Days 15 (Base 50)    
Moisture  
Dew Point 50 °F    
Average Humidity 67    
Maximum Humidity 90    
Minimum Humidity 44    
Precipitation  
Precipitation 0.00 in 0.12 in 2.09 in (1999)
Month to date precipitation 0.00 0.12  
Year to date precipitation 20.73 17.63  
Snow  
Snow 0.00 in 0.00 in - ()
Month to date snowfall 0.0 0.0  
Since 1 June snowfall 0.0 0.0  
Since 1 July snowfall 0.0 0.0  
Snow Depth 0.00 in    
Sea Level Pressure  
Sea Level Pressure 30.00 in    
Wind  
Wind Speed 9 mph (NE)    
Max Wind Speed 20 mph    
Max Gust Speed 28 mph    
Visibility 10 miles    
Events      
T = Trace of Precipitation, MM = Missing Value Source: NWS Daily Summary

Daily Weather History Graph

Daily Weather History Graph

Search for Another Location

Airport or City:

Trip Planner

Search our weather history database for the weather conditions in past years. The results will help you decide how hot, cold, wet, or windy it might be!

Date:

Astronomy

Jul. 01, 2013 Rise Set
Actual Time 6:14 AM EDT 9:23 PM EDT
Civil Twilight 5:40 AM EDT 9:57 PM EDT
Nautical Twilight 4:56 AM EDT 10:41 PM EDT
Astronomical Twilight 4:04 AM EDT 11:33 PM EDT
Moon 1:47 AM EDT (7/1) 3:35 PM EDT (7/1)
Length of Visible Light 16h 16m
Length of Day
15h 08m
Waning Crescent, 35% of the Moon is Illuminated
Jul 1
Waning Crescent
Jul 8
New
Jul 15
First Quarter
Jul 22
Full
Jul 29
Last Quarter

Hourly Weather History & Observations

Time (EDT) Temp. Dew Point Humidity Pressure Visibility Wind Dir Wind Speed Gust Speed Precip Events Conditions
12:54 AM 63.0 °F 59.0 °F 87% 29.96 in 10.0 mi North 6.9 mph - N/A   Clear
1:54 AM 62.1 °F 54.0 °F 75% 29.96 in 10.0 mi NNE 8.1 mph - N/A   Clear
2:54 AM 62.1 °F 50.0 °F 65% 29.96 in 10.0 mi NNE 9.2 mph - N/A   Clear
3:54 AM 57.0 °F 46.9 °F 69% 29.96 in 10.0 mi NNE 5.8 mph - N/A   Clear
4:54 AM 59.0 °F 42.1 °F 53% 29.96 in 10.0 mi NNE 8.1 mph - N/A   Clear
5:54 AM 57.9 °F 42.1 °F 56% 29.97 in 10.0 mi NNE 6.9 mph - N/A   Clear
6:54 AM 57.0 °F 44.1 °F 62% 29.99 in 10.0 mi NNE 5.8 mph - N/A   Clear
7:54 AM 57.0 °F 46.9 °F 69% 30.00 in 10.0 mi North 6.9 mph - N/A   Scattered Clouds
8:54 AM 60.1 °F 48.0 °F 64% 30.00 in 10.0 mi NNE 9.2 mph - N/A   Clear
9:54 AM 63.0 °F 50.0 °F 63% 30.01 in 10.0 mi NNE 9.2 mph - N/A   Mostly Cloudy
10:54 AM 64.9 °F 52.0 °F 63% 30.01 in 10.0 mi NNE 8.1 mph - N/A   Clear
11:54 AM 70.0 °F 55.0 °F 59% 30.01 in 10.0 mi NNE 9.2 mph - N/A   Partly Cloudy
12:54 PM 73.0 °F 55.0 °F 53% 30.01 in 7.0 mi NNE 15.0 mph - N/A   Mostly Cloudy
1:54 PM 72.0 °F 54.0 °F 53% 30.00 in 10.0 mi NNE 15.0 mph 19.6 mph N/A   Clear
2:54 PM 75.9 °F 57.9 °F 54% 30.00 in 10.0 mi NE 11.5 mph 21.9 mph N/A   Partly Cloudy
3:54 PM 73.9 °F 57.9 °F 57% 30.01 in 10.0 mi NE 13.8 mph 21.9 mph N/A   Overcast
4:54 PM 73.9 °F 55.0 °F 52% 30.01 in 10.0 mi NE 13.8 mph 20.7 mph N/A   Overcast
5:54 PM 73.0 °F 51.1 °F 46% 30.02 in 10.0 mi Variable 5.8 mph 16.1 mph N/A   Mostly Cloudy
6:54 PM 72.0 °F 48.0 °F 43% 30.02 in 10.0 mi NE 10.4 mph 17.3 mph N/A   Mostly Cloudy
7:54 PM 71.1 °F 50.0 °F 47% 30.03 in 10.0 mi NNE 8.1 mph - N/A   Mostly Cloudy
8:54 PM 71.1 °F 48.0 °F 44% 30.04 in 10.0 mi East 6.9 mph - N/A   Overcast
9:54 PM 69.1 °F 48.0 °F 47% 30.04 in 10.0 mi East 5.8 mph - N/A   Overcast
10:54 PM 68.0 °F 48.9 °F 50% 30.05 in 10.0 mi Variable 5.8 mph 17.3 mph N/A   Overcast
11:54 PM 66.9 °F 50.0 °F 54% 30.04 in 10.0 mi ENE 5.8 mph - N/A   Mostly Cloudy